| time (UTC) | temp F | wind direction | speed knots | gust knots | rain 1hr in | rain 24hr in | rain mn in | humidity % | barometer mb |
| 20260506190217 | 59 | 50 | 2.6 | 0.0 | 0.00 | 0.00 | 0.00 | 82 | 1005.0 |
| 20260506183103 | 59 | 70 | 6.1 | 0.0 | 0.00 | 0.00 | 0.00 | 82 | 1004.0 |
| 20260506181940 | 59 | 70 | 6.1 | 0.0 | 0.00 | 0.00 | 0.00 | 82 | |
| 20260506180104 | 61 | 50 | 4.3 | 0.0 | 0.00 | 0.00 | 0.00 | 77 | 1004.0 |
| 20260506173102 | 61 | 70 | 4.3 | 0.0 | 0.00 | 0.00 | 0.00 | 77 | 1004.0 |
| 20260506171851 | 61 | 70 | 4.3 | 0.0 | 0.00 | 0.00 | 0.00 | 72 | |
| 20260506170103 | 63 | 60 | 4.3 | 0.0 | 0.00 | 0.00 | 0.00 | 67 | 1004.0 |
| 20260506163103 | 61 | 90 | 6.1 | 0.0 | 0.00 | 0.00 | 0.00 | 82 | 1004.0 |
| 20260506162108 | 61 | 190 | 4.3 | 0.0 | 0.00 | 0.00 | 0.00 | 72 | |
| 20260506160212 | 61 | 260 | 5.2 | 0.0 | 0.00 | 0.00 | 0.00 | 72 | 1005.0 |
| 20260506153511 | 64 | 290 | 7.0 | 0.0 | 0.00 | 0.00 | 0.00 | 63 | 1004.0 |
| 20260506153102 | 66 | 310 | 6.1 | 0.0 | 0.00 | 0.00 | 0.00 | 59 | 1004.0 |
| 20260506151923 | 66 | 310 | 6.1 | 0.0 | 0.00 | 0.00 | 0.00 | 55 | |
| 20260506143102 | 68 | 340 | 5.2 | 0.0 | 0.00 | 0.00 | 0.00 | 52 | 1005.0 |
| 20260506141909 | 70 | 10 | 4.3 | 0.0 | 0.00 | 0.00 | 0.00 | 46 | |
| 20260506140210 | 70 | 0 | 1.7 | 0.0 | 0.00 | 0.00 | 0.00 | 46 | 1005.0 |
| 20260506133102 | 70 | 240 | 5.2 | 0.0 | 0.00 | 0.00 | 0.00 | 46 | 1005.0 |
| 20260506131908 | 70 | 210 | 4.3 | 0.0 | 0.00 | 0.00 | 0.00 | 46 | |
| 20260506130103 | 70 | 220 | 5.2 | 0.0 | 0.00 | 0.00 | 0.00 | 49 | 1005.0 |
| 20260506123103 | 68 | 220 | 2.6 | 0.0 | 0.00 | 0.00 | 0.00 | 49 | 1006.0 |
| 20260506121908 | 68 | 220 | 7.8 | 0.0 | 0.00 | 0.00 | 0.00 | 49 | |
| 20260506120103 | 68 | 250 | 7.0 | 0.0 | 0.00 | 0.00 | 0.00 | 52 | 1006.0 |
| 20260506113103 | 68 | 230 | 8.7 | 0.0 | 0.00 | 0.00 | 0.00 | 52 | 1006.0 |
| 20260506111854 | 66 | 230 | 7.8 | 0.0 | 0.00 | 0.00 | 0.00 | 52 | |
| 20260506110103 | 66 | 230 | 8.7 | 0.0 | 0.00 | 0.00 | 0.00 | 55 | 1006.0 |
| 20260506103103 | 66 | 220 | 10.4 | 0.0 | 0.00 | 0.00 | 0.00 | 59 | 1007.0 |
| 20260506102055 | 64 | 210 | 10.4 | 0.0 | 0.00 | 0.00 | 0.00 | 59 | |
| 20260506093103 | 64 | 220 | 8.7 | 0.0 | 0.00 | 0.00 | 0.00 | 59 | 1007.0 |
| 20260506091853 | 63 | 210 | 10.4 | 0.0 | 0.00 | 0.00 | 0.00 | 63 | |
| 20260506083103 | 63 | 210 | 11.3 | 0.0 | 0.00 | 0.00 | 0.00 | 67 | 1007.0 |
| 20260506081851 | 61 | 220 | 10.4 | 0.0 | 0.00 | 0.00 | 0.00 | 67 | |
| 20260506080210 | 61 | 220 | 10.4 | 0.0 | 0.00 | 0.00 | 0.00 | 72 | 1006.0 |
| 20260506073103 | 61 | 220 | 10.4 | 0.0 | 0.00 | 0.00 | 0.00 | 72 | 1006.0 |
| 20260506071853 | 59 | 220 | 10.4 | 0.0 | 0.00 | 0.00 | 0.00 | 77 | |
| 20260506070103 | 59 | 210 | 8.7 | 0.0 | 0.00 | 0.00 | 0.00 | 77 | 1006.0 |
| 20260506061855 | 57 | 200 | 10.4 | 0.0 | 0.00 | 0.00 | 0.00 | 82 | |
| 20260506050210 | 55 | 220 | 7.8 | 0.0 | 0.00 | 0.00 | 0.00 | 87 | 1006.0 |
| 20260506043103 | 54 | 220 | 8.7 | 0.0 | 0.00 | 0.00 | 0.00 | 93 | 1006.0 |
| 20260506042051 | 54 | 210 | 10.4 | 0.0 | 0.00 | 0.00 | 0.00 | 87 | |
| 20260506033102 | 54 | 220 | 7.0 | 0.0 | 0.00 | 0.00 | 0.00 | 93 | 1006.0 |
| 20260506031854 | 54 | 220 | 7.8 | 0.0 | 0.00 | 0.00 | 0.00 | 93 | |
| 20260506030103 | 54 | 210 | 7.8 | 0.0 | 0.00 | 0.00 | 0.00 | 93 | 1006.0 |
| 20260506023103 | 54 | 220 | 7.0 | 0.0 | 0.00 | 0.00 | 0.00 | 93 | 1006.0 |
| 20260506021854 | 54 | 200 | 4.3 | 0.0 | 0.00 | 0.00 | 0.00 | 99 | |
| 20260506020213 | 55 | 200 | 4.3 | 0.0 | 0.00 | 0.00 | 0.00 | 93 | 1006.0 |
| 20260506015004 | 55 | 180 | 4.3 | 0.0 | 0.00 | 0.00 | 0.00 | 93 | 1006.0 |
| 20260506013102 | 54 | 170 | 2.6 | 0.0 | 0.00 | 0.00 | 0.00 | 100 | 1006.0 |
| 20260506012702 | 54 | 170 | 2.6 | 0.0 | 0.00 | 0.00 | 0.00 | 100 | 1006.0 |
| 20260506011953 | 55 | 150 | 1.7 | 0.0 | 0.00 | 0.00 | 0.00 | 93 | |
| 20260506011902 | 54 | 160 | 4.3 | 0.0 | 0.00 | 0.00 | 0.00 | 93 | 1006.0 |
| 20260506003209 | 55 | 0 | 1.7 | 0.0 | 0.00 | 0.00 | 0.00 | 93 | 1006.0 |
| 20260506001851 | 55 | 280 | 4.3 | 0.0 | 0.00 | 0.00 | 0.00 | 93 | |
| 20260505233103 | 55 | 0 | 0.9 | 0.0 | 0.00 | 0.00 | 0.00 | 93 | 1006.0 |
| 20260505231852 | 55 | 290 | 1.7 | 0.0 | 0.00 | 0.00 | 0.00 | 93 | |
| 20260505230212 | 55 | 290 | 4.3 | 0.0 | 0.00 | 0.00 | 0.00 | 93 | 1006.0 |
| 20260505224003 | 55 | 290 | 6.1 | 0.0 | 0.00 | 0.00 | 0.00 | 93 | 1006.0 |
| 20260505223103 | 57 | 290 | 7.0 | 0.0 | 0.00 | 0.00 | 0.00 | 93 | 1006.0 |
| 20260505221851 | 57 | 270 | 12.2 | 0.0 | 0.00 | 0.00 | 0.00 | 87 | |
| 20260505220703 | 57 | 270 | 11.3 | 0.0 | 0.00 | 0.00 | 0.00 | 93 | 1006.0 |
| 20260505213102 | 59 | 260 | 11.3 | 0.0 | 0.00 | 0.00 | 0.00 | 87 | 1006.0 |
| 20260505211925 | 61 | 280 | 7.8 | 0.0 | 0.00 | 0.00 | 0.00 | 77 | |
| 20260505211808 | 61 | 260 | 11.3 | 0.0 | 0.00 | 0.00 | 0.00 | 82 | 1006.0 |
| 20260505210218 | 61 | 290 | 7.0 | 0.0 | 0.00 | 0.00 | 0.00 | 77 | 1006.0 |
| 20260505203102 | 64 | 240 | 11.3 | 0.0 | 0.00 | 0.00 | 0.00 | 59 | 1004.0 |
| 20260505202903 | 64 | 240 | 11.3 | 0.0 | 0.00 | 0.00 | 0.00 | 59 | 1004.0 |
| 20260505201908 | 63 | 320 | 4.3 | 0.0 | 0.00 | 0.00 | 0.00 | 63 | |
| 20260505200219 | 63 | 320 | 5.2 | 0.0 | 0.00 | 0.00 | 0.00 | 63 | 1003.0 |
| 20260505193103 | 63 | 340 | 5.2 | 0.0 | 0.00 | 0.00 | 0.00 | 67 | 1003.0 |
| 20260505191925 | 63 | 30 | 4.3 | 0.0 | 0.00 | 0.00 | 0.00 | 67 |